軌道要素
Epoch 2020 Dec. 17.0 TT = JDT 2459200.5
T 2020 Dec. 12.66984 TT Rudenko
q 0.3985097 (2000.0) P Q
z +0.0053200 Peri. 349.88235 -0.83267994 +0.50295267
+/-0.0000431 Node 222.99802 -0.48136005 -0.86425424
e 0.9978799 Incl. 19.86120 -0.27374555 -0.01015956
From 522 observations 2020 Sept. 17-Dec. 5, mean residual 1".2.
|